Weather History for Wrangell, AK

Change the Weather History Date:

Saturday, November 23, 2013

  Actual Average Record
Temperature  
Mean Temperature 38 °F -  
Max Temperature 42 °F 40 °F 53 °F (2005)
Min Temperature 33 °F 30 °F 10 °F (1985)
Degree Days  
Heating Degree Days 28    
Moisture  
Dew Point 34 °F    
Average Humidity 80    
Maximum Humidity 87    
Minimum Humidity 70    
Precipitation  
Precipitation 0.77 in - - ()
Sea Level Pressure  
Sea Level Pressure 30.09 in    
Wind  
Wind Speed 14 mph (SE)    
Max Wind Speed 22 mph    
Max Gust Speed 37 mph    
Visibility 7 miles    
Events      
Averages and records for this station are not official NWS values.
T = Trace of Precipitation, MM = Missing Value Source: NWS Daily Summary

Daily Weather History Graph

Daily Weather History Graph

Search for Another Location

Airport:

Trip Planner

Search our weather history database for the weather conditions in past years. The results will help you decide how hot, cold, wet, or windy it might be!

Date:

Astronomy

Nov. 23, 2013 Rise Set
Actual Time 7:45 AM AKST 3:26 PM AKST
Civil Twilight 7:00 AM AKST 4:10 PM AKST
Nautical Twilight 6:13 AM AKST 4:58 PM AKST
Astronomical Twilight 5:28 AM AKST 5:43 PM AKST
Moon 9:30 PM AKST (11/23) 11:41 AM AKST (11/23)
Length of Visible Light 9h 10m
Length of Day
7h 40m
Waning Gibbous, 68% of the Moon is Illuminated
Nov 23
Waning Gibbous
Nov 25
Last Quarter
Dec 2
New
Dec 9
First Quarter
Dec 17
Full

Hourly Weather History & Observations

Time (AKST) Temp. Windchill Dew Point Humidity Pressure Visibility Wind Dir Wind Speed Gust Speed Precip Events Conditions
12:16 AM 41.0 °F 31.4 °F 33.8 °F 76% 29.98 in 5.0 mi ESE 21.9 mph 27.6 mph 0.02 in   Overcast
12:36 AM 41.0 °F 31.4 °F 33.8 °F 76% 29.97 in 5.0 mi ESE 21.9 mph 28.8 mph 0.04 in   Overcast
12:56 AM 41.0 °F 31.9 °F 33.8 °F 76% 29.97 in 5.0 mi ESE 19.6 mph 27.6 mph 0.07 in   Overcast
1:16 AM 39.2 °F 29.6 °F 33.8 °F 81% 29.97 in 5.0 mi ESE 19.6 mph 27.6 mph 0.05 in   Overcast
1:36 AM 39.2 °F 29.3 °F 33.8 °F 81% 29.96 in 5.0 mi ESE 20.7 mph 28.8 mph 0.08 in   Overcast
1:56 AM 39.2 °F 29.6 °F 33.8 °F 81% 29.97 in 5.0 mi ESE 19.6 mph 27.6 mph 0.11 in   Overcast
2:16 AM 39.2 °F 29.0 °F 33.8 °F 81% 29.96 in 5.0 mi ESE 21.9 mph 29.9 mph 0.04 in   Overcast
2:36 AM 39.2 °F 29.6 °F 33.8 °F 81% 29.97 in 5.0 mi ESE 19.6 mph 28.8 mph 0.06 in   Overcast
2:56 AM 39.2 °F 30.8 °F 33.8 °F 81% 29.98 in 5.0 mi ESE 15.0 mph 29.9 mph 0.09 in   Overcast
3:16 AM 39.2 °F 29.6 °F 33.8 °F 81% 29.98 in 7.0 mi ESE 19.6 mph 36.8 mph 0.02 in   Overcast
3:36 AM 39.2 °F 29.6 °F 32.0 °F 75% 29.98 in 5.0 mi ESE 19.6 mph 31.1 mph 0.04 in   Overcast
3:56 AM 39.2 °F 29.6 °F 32.0 °F 75% 29.97 in 5.0 mi ESE 19.6 mph 29.9 mph 0.08 in   Overcast
4:16 AM 39.2 °F 29.8 °F 33.8 °F 81% 29.98 in 5.0 mi ESE 18.4 mph 26.5 mph 0.03 in   Overcast
4:36 AM 39.2 °F 29.3 °F 33.8 °F 81% 29.97 in 8.0 mi ESE 20.7 mph 29.9 mph 0.04 in   Overcast
4:56 AM 39.2 °F 29.0 °F 32.0 °F 75% 29.97 in 10.0 mi ESE 21.9 mph 28.8 mph 0.05 in   Overcast
5:16 AM 39.2 °F 29.0 °F 32.0 °F 75% 29.96 in 7.0 mi ESE 21.9 mph 29.9 mph 0.01 in   Overcast
5:36 AM 39.2 °F 29.3 °F 33.8 °F 81% 29.97 in 5.0 mi ESE 20.7 mph 31.1 mph 0.06 in   Overcast
5:56 AM 39.2 °F 29.6 °F 33.8 °F 81% 29.97 in 5.0 mi ESE 19.6 mph 29.9 mph 0.07 in   Overcast
6:16 AM 39.2 °F 29.6 °F 33.8 °F 81% 29.96 in 5.0 mi ESE 19.6 mph 26.5 mph N/A   Overcast
6:36 AM 39.2 °F 30.8 °F 33.8 °F 81% 29.97 in 5.0 mi ESE 15.0 mph 23.0 mph 0.01 in   Overcast
6:56 AM 39.2 °F 30.8 °F 33.8 °F 81% 29.98 in 5.0 mi East 15.0 mph 25.3 mph 0.01 in   Overcast
7:16 AM 39.2 °F 29.6 °F 33.8 °F 81% 29.98 in 5.0 mi ESE 19.6 mph 26.5 mph N/A   Overcast
7:36 AM 41.0 °F 32.8 °F 33.8 °F 76% 29.98 in 10.0 mi ESE 16.1 mph 23.0 mph N/A   Overcast
7:56 AM 41.0 °F 32.5 °F 33.8 °F 76% 29.98 in 5.0 mi ESE 17.3 mph 23.0 mph N/A   Overcast
8:16 AM 41.0 °F 32.8 °F 33.8 °F 76% 29.99 in 5.0 mi East 16.1 mph 20.7 mph 0.01 in   Overcast
8:36 AM 42.8 °F 34.8 °F 33.8 °F 70% 29.98 in 10.0 mi ESE 17.3 mph 25.3 mph 0.01 in   Overcast
8:56 AM 42.8 °F 38.0 °F 35.6 °F 76% 29.99 in 10.0 mi ESE 8.1 mph 23.0 mph 0.01 in   Overcast
9:16 AM 42.8 °F 40.1 °F 35.6 °F 76% 29.99 in 10.0 mi ESE 4.6 mph - N/A   Overcast
9:36 AM 42.8 °F 39.3 °F 35.6 °F 76% 30.00 in 10.0 mi West 5.8 mph - N/A   Overcast
9:56 AM 42.8 °F 36.6 °F 35.6 °F 76% 30.01 in 7.0 mi ENE 11.5 mph - N/A   Overcast
10:16 AM 41.0 °F 33.5 °F 35.6 °F 81% 30.01 in 7.0 mi ENE 13.8 mph 20.7 mph 0.01 in   Overcast
10:36 AM 42.8 °F 35.4 °F 37.4 °F 81% 30.01 in 7.0 mi East 15.0 mph 21.9 mph 0.03 in   Overcast
10:56 AM 42.8 °F 38.0 °F 35.6 °F 76% 30.02 in 7.0 mi West 8.1 mph - 0.03 in   Overcast
11:16 AM 42.8 °F 37.5 °F 35.6 °F 76% 30.03 in 7.0 mi East 9.2 mph - N/A   Overcast
11:36 AM 42.8 °F 40.1 °F 35.6 °F 76% 30.04 in 7.0 mi West 4.6 mph - N/A   Overcast
11:56 AM 42.8 °F 41.1 °F 37.4 °F 81% 30.04 in 7.0 mi West 3.5 mph - N/A   Overcast
12:16 PM 42.8 °F 38.0 °F 37.4 °F 81% 30.06 in 7.0 mi NW 8.1 mph - 0.02 in   Overcast
12:36 PM 42.8 °F 40.1 °F 37.4 °F 81% 30.06 in 7.0 mi NW 4.6 mph - 0.05 in   Overcast
12:56 PM 42.8 °F - 37.4 °F 81% 30.08 in 5.0 mi Calm Calm - 0.09 in   Overcast
1:16 PM 42.8 °F 38.6 °F 37.4 °F 81% 30.09 in 5.0 mi East 6.9 mph - 0.02 in   Overcast
1:36 PM 42.8 °F 41.1 °F 37.4 °F 81% 30.10 in 5.0 mi SSE 3.5 mph - 0.02 in   Overcast
1:56 PM 42.8 °F 38.0 °F 37.4 °F 81% 30.11 in 5.0 mi NW 8.1 mph - 0.05 in   Overcast
2:16 PM 42.8 °F 38.6 °F 39.2 °F 87% 30.12 in 5.0 mi NE 6.9 mph - 0.08 in   Overcast
2:36 PM 42.8 °F - 37.4 °F 81% 30.13 in 5.0 mi Calm Calm - 0.09 in   Overcast
2:56 PM 42.8 °F 41.1 °F 37.4 °F 81% 30.14 in 5.0 mi SSE 3.5 mph - 0.09 in   Overcast
3:16 PM 42.8 °F 41.1 °F 37.4 °F 81% 30.15 in 5.0 mi SE 3.5 mph - N/A   Overcast
3:36 PM 42.8 °F - 37.4 °F 81% 30.16 in 5.0 mi Calm Calm - 0.01 in   Overcast
3:56 PM 41.0 °F 35.2 °F 35.6 °F 81% 30.18 in 10.0 mi West 9.2 mph - 0.02 in   Overcast
4:16 PM 41.0 °F 35.8 °F 35.6 °F 81% 30.19 in 10.0 mi WSW 8.1 mph - N/A   Overcast
4:36 PM 39.2 °F 35.0 °F 33.8 °F 81% 30.20 in 10.0 mi West 5.8 mph - N/A   Overcast
4:56 PM 39.2 °F 32.5 °F 35.6 °F 87% 30.20 in 6.0 mi NNW 10.4 mph - N/A   Overcast
5:16 PM 39.2 °F 33.0 °F 33.8 °F 81% 30.21 in 6.0 mi NW 9.2 mph - N/A   Overcast
5:36 PM 39.2 °F 37.0 °F 33.8 °F 81% 30.22 in 6.0 mi WNW 3.5 mph - N/A   Overcast
5:56 PM 39.2 °F 35.0 °F 33.8 °F 81% 30.22 in 7.0 mi West 5.8 mph - N/A   Overcast
6:16 PM 39.2 °F 35.9 °F 33.8 °F 81% 30.23 in 7.0 mi West 4.6 mph - N/A   Overcast
6:36 PM 37.4 °F - 33.8 °F 87% 30.23 in 7.0 mi Calm Calm - N/A   Overcast
6:56 PM 37.4 °F 34.9 °F 33.8 °F 87% 30.24 in 7.0 mi WNW 3.5 mph - N/A   Scattered Clouds
7:16 PM 37.4 °F 33.8 °F 32.0 °F 81% 30.24 in 7.0 mi SW 4.6 mph - N/A   Scattered Clouds
7:36 PM 37.4 °F 32.8 °F 32.0 °F 81% 30.25 in 7.0 mi WSW 5.8 mph - N/A   Scattered Clouds
7:56 PM 37.4 °F 32.8 °F 32.0 °F 81% 30.25 in 8.0 mi SW 5.8 mph - N/A   Mostly Cloudy
8:16 PM 37.4 °F 32.1 °F 30.2 °F 75% 30.25 in 8.0 mi SW 6.9 mph - N/A   Mostly Cloudy
8:36 PM 37.4 °F 31.4 °F 30.2 °F 75% 30.25 in 8.0 mi West 8.1 mph - N/A   Mostly Cloudy
8:56 PM 35.6 °F 30.7 °F 28.4 °F 75% 30.25 in 8.0 mi SW 5.8 mph - N/A   Clear
9:16 PM 35.6 °F 31.7 °F 30.2 °F 81% 30.26 in 8.0 mi SW 4.6 mph - N/A   Clear
9:36 PM 35.6 °F - 30.2 °F 81% 30.26 in 8.0 mi Calm Calm - N/A   Clear
9:56 PM 33.8 °F - 28.4 °F 81% 30.27 in 8.0 mi Calm Calm - N/A   Clear
10:16 PM 33.8 °F - 26.6 °F 75% 30.28 in 8.0 mi Calm Calm - N/A   Clear
10:36 PM 35.6 °F 31.7 °F 30.2 °F 81% 30.27 in 8.0 mi West 4.6 mph - N/A   Clear
10:56 PM 33.8 °F 30.8 °F 28.4 °F 81% 30.28 in 8.0 mi SSW 3.5 mph - N/A   Clear
11:16 PM 33.8 °F 28.6 °F 28.4 °F 81% 30.28 in 10.0 mi SE 5.8 mph - N/A   Partly Cloudy
11:36 PM 33.8 °F 29.6 °F 28.4 °F 81% 30.27 in 10.0 mi SSE 4.6 mph - N/A   Scattered Clouds
11:56 PM 33.8 °F 29.6 °F 28.4 °F 81% 30.27 in 10.0 mi SSE 4.6 mph - N/A   Clear